SL-8 R/B

Last updated on Sat Sep 05 2026 00:02:08 GMT+0000 (Coordinated Universal Time)

1 21938U 92020B 26247.62045388 .00000088 00000+0 75426-4 0 9996 2 21938 82.9324 20.8390 0029662 156.0063 214.7906 13.75558543725730
UTC large
Height (km)
Speed (km/s)
/
Latitude / Longitude
Inclination (degrees)
Orbital Period (minutes)
Azimuth
Elevation
Range (km)
Doppler Factor

Next 0 passes for location: London (51.5072 / 0.1276)

No passes found over London.
SL-8 R/B